Date String (YYYY-MM-DD hh:mm:ss) UTC,Instrument flags,Ambient pressure (hPa),Sample flow (lpm),Bypass flow (lpm),Sample temperature (°C),Ambient temperature (°C),ASC tube jacket temperature (°C),LED temperature (°C),Box temperature (°C),Sample RH (%),Span deviation,Mass concentration (μg/m³),Mass concentration (μg/m³),Mass concentration (μg/m³)
DateTimeUTC,F1_M11,P_M11,Q1_M11,Q2_M11,T1_M11,T2_M11,T3_M11,T4_M11,T5_M11,U1_M11,ZSPAN_M11,X2_M11,X0_M11,X1_M11
2022-01-09 00:00:00,,0823.3,5.01,0.00,25.1,24.4,00.0,34.1,26.9,13.2,0000.0,0006.60,0012.49,0006.16
2022-01-09 00:01:00,,0823.3,4.98,0.00,25.1,24.4,00.0,34.1,26.9,13.0,0000.0,0006.71,0012.59,0006.26
2022-01-09 00:02:00,,0823.4,5.02,0.00,25.1,24.4,00.0,34.1,26.9,12.8,0000.0,0006.76,0012.67,0006.32
2022-01-09 00:03:00,,0823.4,5.00,0.00,25.1,24.4,00.0,34.1,26.9,13.2,0000.0,0006.73,0012.79,0006.30
2022-01-09 00:04:00,,0823.4,5.00,0.00,25.1,24.4,00.0,34.1,26.9,13.0,0000.0,0006.69,0012.32,0006.25
2022-01-09 00:05:00,,0823.5,4.99,0.00,25.1,24.4,00.0,34.1,26.9,13.0,0000.0,0006.64,0011.48,0006.19
2022-01-09 00:06:00,,0823.7,5.01,0.00,25.1,24.4,00.0,34.1,26.9,13.7,0000.0,0006.59,0011.46,0006.11
2022-01-09 00:07:00,,0823.6,4.99,0.00,25.1,24.3,00.0,34.1,26.9,13.9,0000.0,0006.49,0010.85,0006.04
2022-01-09 00:08:00,,0823.7,5.00,0.00,25.1,24.3,00.0,34.1,26.8,13.7,0000.0,0006.46,0011.07,0006.02
2022-01-09 00:09:00,,0823.7,4.99,0.00,25.1,24.3,00.0,34.1,26.8,13.1,0000.0,0006.47,0011.04,0006.03
2022-01-09 00:10:00,,0823.7,5.00,0.00,25.0,24.3,00.0,34.1,26.8,13.7,0000.0,0006.47,0010.97,0006.02
2022-01-09 00:11:00,,0823.7,5.00,0.00,25.0,24.2,00.0,34.1,26.8,13.8,0000.0,0006.52,0011.27,0006.01
2022-01-09 00:12:00,,0823.8,5.01,0.00,25.0,24.2,00.0,34.1,26.7,14.1,0000.0,0006.48,0011.21,0005.97
2022-01-09 00:13:00,,0823.8,4.99,0.00,25.0,24.2,00.0,34.1,26.7,14.2,0000.0,0006.49,0011.12,0005.96
2022-01-09 00:14:00,,0823.8,4.99,0.00,24.9,24.1,00.0,34.1,26.6,14.1,0000.0,0006.56,0011.06,0006.02
2022-01-09 00:15:00,,0823.8,5.00,0.00,24.9,24.1,00.0,34.0,26.6,13.7,0000.0,0006.64,0011.20,0006.10
2022-01-09 00:16:00,,0823.8,5.00,0.00,24.9,24.1,00.0,34.0,26.7,13.5,0000.0,0006.69,0011.35,0006.18
2022-01-09 00:17:00,,0823.8,5.00,0.00,24.9,24.1,00.0,34.0,26.7,13.4,0000.0,0006.75,0011.54,0006.24
2022-01-09 00:18:00,,0823.8,4.99,0.00,24.9,24.1,00.0,34.0,26.7,13.9,0000.0,0006.80,0011.53,0006.29
2022-01-09 00:19:00,,0823.9,4.99,0.00,24.9,24.1,00.0,34.0,26.7,14.2,0000.0,0006.85,0011.34,0006.33
2022-01-09 00:20:00,,0823.9,5.01,0.00,24.9,24.1,00.0,34.0,26.7,14.3,0000.0,0006.91,0011.49,0006.38
2022-01-09 00:21:00,,0824.0,5.00,0.00,24.9,24.1,00.0,33.9,26.6,14.4,0000.8,0006.98,0011.71,0006.42
2022-01-09 00:22:00,,0824.0,4.99,0.00,24.9,24.1,00.0,33.9,26.6,14.5,0002.4,0006.94,0011.75,0006.41
2022-01-09 00:23:00,,0824.1,5.02,0.00,24.9,24.1,00.0,33.9,26.6,14.5,0001.9,0006.92,0012.39,0006.39
2022-01-09 00:24:00,,0824.1,5.00,0.00,24.9,24.1,00.0,33.9,26.6,14.6,0000.9,0006.90,0012.46,0006.36
2022-01-09 00:25:00,,0824.1,5.00,0.00,24.8,24.1,00.0,33.9,26.6,14.7,0000.5,0006.87,0012.39,0006.30
2022-01-09 00:26:00,,0824.1,4.99,0.00,24.8,24.1,00.0,33.9,26.6,14.8,0000.5,0006.87,0012.40,0006.26
2022-01-09 00:27:00,,0824.2,5.01,0.00,24.8,24.1,00.0,33.9,26.6,14.8,0000.3,0006.85,0012.39,0006.22
2022-01-09 00:28:00,,0824.2,4.99,0.00,24.8,24.1,00.0,33.9,26.6,14.9,0000.7,0006.80,0012.31,0006.17
2022-01-09 00:29:00,,0824.3,5.02,0.00,24.8,24.1,00.0,33.9,26.6,14.9,0000.2,0006.78,0012.50,0006.14
2022-01-09 00:30:00,,0824.3,4.99,0.00,24.8,24.1,00.0,33.9,26.6,14.9,-000.2,0006.77,0013.60,0006.10
2022-01-09 00:31:00,,0824.4,5.00,0.00,24.8,24.1,00.0,33.9,26.6,15.0,0000.1,0006.77,0013.88,0006.09
2022-01-09 00:32:00,,0824.4,5.00,0.00,24.8,24.1,00.0,33.9,26.6,15.0,0000.2,0006.77,0013.58,0006.09
2022-01-09 00:33:00,,0824.6,5.00,0.00,24.8,24.0,00.0,33.9,26.5,15.1,-000.1,0006.80,0013.03,0006.13
2022-01-09 00:34:00,,0824.8,4.99,0.00,24.7,24.0,00.0,33.8,26.5,15.1,0000.1,0006.83,0012.80,0006.16
2022-01-09 00:35:00,,0824.6,5.00,0.00,24.7,23.9,00.0,33.8,26.5,15.1,0000.1,0006.85,0012.74,0006.19
2022-01-09 00:36:00,,0824.8,5.02,0.00,24.7,23.9,00.0,33.8,26.4,15.1,0000.8,0006.89,0012.94,0006.21
2022-01-09 00:37:00,,0824.8,4.98,0.00,24.6,23.8,00.0,33.8,26.3,15.1,0000.8,0006.87,0013.17,0006.21
2022-01-09 00:38:00,,0824.9,5.01,0.00,24.6,23.8,00.0,33.8,26.3,15.1,0000.0,0006.83,0013.25,0006.21
2022-01-09 00:39:00,,0824.9,4.99,0.00,24.6,23.8,00.0,33.8,26.3,15.1,0000.1,0006.82,0013.48,0006.21
2022-01-09 00:40:00,,0824.9,5.00,0.00,24.6,23.7,00.0,33.7,26.3,15.0,0000.3,0006.80,0013.26,0006.19
2022-01-09 00:41:00,,0824.9,5.01,0.00,24.5,23.7,00.0,33.7,26.2,15.0,0001.0,0006.80,0012.72,0006.16
2022-01-09 00:42:00,,0825.0,4.99,0.00,24.5,23.7,00.0,33.7,26.2,14.9,0000.3,0006.72,0012.38,0006.09
2022-01-09 00:43:00,,0825.0,5.00,0.00,24.5,23.6,00.0,33.7,26.2,14.7,0001.0,0006.61,0012.37,0006.00
2022-01-09 00:44:00,,0825.0,5.02,0.00,24.4,23.6,00.0,33.7,26.1,14.7,0001.1,0006.47,0012.17,0005.89
2022-01-09 00:45:00,,0825.1,4.98,0.00,24.4,23.6,00.0,33.6,26.1,14.8,0001.4,0006.33,0011.80,0005.77
2022-01-09 00:46:00,,0825.1,5.00,0.00,24.4,23.5,00.0,33.6,26.1,14.8,0001.9,0006.19,0011.72,0005.66
2022-01-09 00:47:00,,0825.1,5.01,0.00,24.4,23.5,00.0,33.6,26.0,14.8,0001.1,0006.04,0011.47,0005.54
2022-01-09 00:48:00,,0825.2,5.01,0.00,24.3,23.5,00.0,33.6,26.0,14.8,0000.0,0005.89,0011.06,0005.42
2022-01-09 00:49:00,,0825.2,4.99,0.00,24.3,23.4,00.0,33.5,26.0,14.8,0000.0,0005.75,0010.70,0005.30
2022-01-09 00:50:00,,0825.2,5.00,0.00,24.3,23.4,00.0,33.5,26.0,14.8,0000.0,0005.65,0010.25,0005.21
2022-01-09 00:51:00,,0825.2,4.99,0.00,24.3,23.4,00.0,33.5,25.9,14.8,0000.0,0005.51,0009.97,0005.06
2022-01-09 00:52:00,,0825.3,5.02,0.00,24.2,23.4,00.0,33.5,25.9,14.8,0000.0,0005.32,0009.62,0004.91
2022-01-09 00:53:00,,0825.3,5.00,0.00,24.2,23.3,00.0,33.5,25.9,14.9,0000.0,0005.17,0008.74,0004.78
2022-01-09 00:54:00,,0825.3,5.00,0.00,24.2,23.3,00.0,33.4,25.8,15.0,0000.0,0005.05,0008.43,0004.68
2022-01-09 00:55:00,,0825.4,5.00,0.00,24.1,23.3,00.0,33.4,25.7,15.1,0000.0,0004.94,0008.31,0004.58
2022-01-09 00:56:00,,0825.4,5.00,0.00,24.1,23.2,00.0,33.4,25.7,15.2,0000.0,0004.87,0008.24,0004.51
2022-01-09 00:57:00,,0825.5,5.00,0.00,24.1,23.2,00.0,33.4,25.6,15.2,0000.0,0004.82,0008.09,0004.42
2022-01-09 00:58:00,,0825.5,5.00,0.00,24.0,23.1,00.0,33.3,25.6,15.3,0000.0,0004.74,0007.91,0004.34
2022-01-09 00:59:00,,0825.5,5.01,0.00,24.0,23.0,00.0,33.3,25.5,15.4,0000.0,0004.62,0007.78,0004.23
